Regional Weather Roundup
Issued by NWS

Home | Current Version | Previous Version | Text Only | Print | Product List | Glossary On
Versions: 1 2 3 4 5 6 7 8 9 10 11 12 13 14 15 16 17 18 19 20 21 22 23 24 25 26 27 28 29 30 31 32 33 34 35 36 37 38 39 40 41 42 43 44 45 46 47 48 49 50
000
ASPQ40 PGUM 290310
RWRPQ
WEATHER ROUNDUP FOR THE MARIANAS AND MICRONESIA
NATIONAL WEATHER SERVICE TIYAN GU
100 PM CHST SAT AUG 29 2015

GUZ001>004-290400-
MARIANA ISLANDS-

CITY           SKY/WX    TMP DP  RH WIND       PRES   REMARKS
GUAM AIRPORT   MOSUNNY   88  75  66 N6        29.81F HX  97
ANDERSEN AFB   MOSUNNY   86  75  70 N9        29.82F HX  95
ROTA AIRPORT   LGT RAIN  79  77  94 VRB2      29.82F
TINIAN AP      PTSUNNY   88  77  70 W5        29.78F HX 100
SAIPAN AP      MOSUNNY   88  77  70 W7        29.79F HX 100

$$

PMZ161-290400-
REPUBLIC OF PALAU-

CITY           SKY/WX    TMP DP  RH WIND       PRES   REMARKS
KOROR AP       PTSUNNY   86  75  70 SW12G18   29.83F HX  95
KOROR WSO      CLOUDY    88  75  66 W13       29.86F HX  97

$$

PMZ171>174-290400-
FEDERATED STATES OF MICRONESIA-

CITY           SKY/WX    TMP DP  RH WIND       PRES   REMARKS
YAP AIRPORT    CLOUDY    88  79  74 W10       29.82F HX 102
CHUUK AP       CLOUDY    81  79  94 S9        29.83F
POHNPEI AP     CLOUDY    82  77  83 W6        29.81F HX  91
POHNPEI WSO    CLOUDY    82  79  89 W10       29.84F HX  93
KOSRAE AP      NOT AVBL

$$

PMZ181-290400-
REPUBLIC OF THE MARSHALL ISLANDS-

CITY           SKY/WX    TMP DP  RH WIND       PRES   REMARKS
KWAJALEIN AP   SUNNY     88  75  66 SW10      29.77F HX  97
MAJURO AP      NOT AVBL
MAJURO WSO     MOSUNNY   86  79  79 W9        29.76F HX  99

$$




USA.gov is the U.S. government's official web portal to all federal, state and local government web resources and services.